Regional Weather Roundup
Issued by NWS Cleveland, OH

Home | Current Version | Previous Version | Graphics & Text | Print | Product List | Glossary On
Versions: 1 2 3 4 5 6 7 8 9 10 11 12 13 14 15 16 17 18 19 20 21 22 23 24 25 26 27 28 29 30 31 32 33 34 35 36 37 38 39 40 41 42 43 44 45 46 47 48 49 50
000
ASUS41 KCLE 180910
RWRCLE
OHIO REGIONAL WEATHER ROUNDUP
NATIONAL WEATHER SERVICE WILMINGTON, OH
500 AM EDT SAT APR 18 2015

NOTE: "FAIR" INDICATES FEW OR NO CLOUDS BELOW 12,000 FEET WITH NO
SIGNIFICANT WEATHER AND/OR OBSTRUCTIONS TO VISIBILITY.

OHZ001>008-015>018-024>027-034-035-043-044-181000-
   NORTHWEST OHIO

CITY           SKY/WX    TMP DP  RH WIND       PRES   REMARKS
DEFIANCE       PTCLDY    52  44  74 CALM      30.04R
FINDLAY        CLEAR     53  41  63 SW5       30.03R
TOLEDO EXPRESS PTCLDY    52  43  71 CALM      30.02S
TOLEDO EXEC    CLEAR     52  40  63 SW5       30.03S
LIMA           CLEAR     57  41  55 SW6       30.05R
$$

OHZ009>014-019>023-028>033-038-089-181000-
   NORTHEAST OHIO

CITY           SKY/WX    TMP DP  RH WIND       PRES   REMARKS
CLE-HOPKINS    CLEAR     53  44  71 S6        30.04R
CLE-LAKEFRONT  CLEAR     57  46  66 SE10      30.01R
CUY CO. ARPT   NOT AVBL
LORAIN-ELYRIA  CLEAR     50  42  74 S6        30.03R
ASHTABULA      CLEAR     47  44  90 S7        30.02S
AKRON-CANTON   CLEAR     53  44  71 SW3       30.04R
WOOSTER        CLEAR     45  42  89 CALM      30.05R
MANSFIELD      CLEAR     51  41  68 SW5       30.05R
YOUNGSTOWN     PTCLDY    49  44  83 S3        30.03R
$$

OHZ042-051>053-060>062-070>072-077>081-181000-
  SOUTHWEST OHIO

CITY           SKY/WX    TMP DP  RH WIND       PRES   REMARKS
CINC-COVINGTON CLEAR     54  44  69 CALM      30.04F
CINC-LUNKEN    CLEAR     49  49 100 CALM      30.06S
HAMILTON       CLEAR     47  46  97 CALM      30.06S
DAYTON         CLEAR     53  42  66 E3        30.06S
WRIGHT-PAT AFB CLEAR     48  45  87 N2        30.05S
DAYTON GENERAL CLEAR     49  42  77 NE3       30.04F
WILMINGTON     CLEAR     51  45  79 CALM      30.05F
$$

OHZ036-037-039>041-045>050-054>059-063>069-073>076-082>088-181000-
  CENTRAL AND SOUTHEAST OHIO

CITY           SKY/WX    TMP DP  RH WIND       PRES   REMARKS
COLUMBUS       CLEAR     49  44  83 CALM      30.06R
OSU AIRPORT    CLEAR     51  43  74 W3        30.05R
BOLTON FIELD   CLEAR     48  44  87 CALM      30.06S
RICKENBACK AFB CLEAR     48  44  87 CALM      30.05S
NEWARK         CLEAR     45  42  89 CALM      30.05R
MARION         CLEAR     49  42  77 S3        30.05R
LANCASTER      CLEAR     46  43  89 CALM      30.06R
ZANESVILLE     CLEAR     46  43  89 CALM      30.05R FOG
NEW PHILLY     CLEAR     46  42  86 CALM      30.06R FOG
$$



USA.gov is the U.S. government's official web portal to all federal, state and local government web resources and services.